Location: Star Corral Observatory
(36.0443°N, 95.7804°W)
Time: 23:05:46
(UTC-06:00)

ISS - Visible Passes

Search period start: 07 December 2025 00:00
Search period end: 17 December 2025 00:00
Orbit: 416 x 421 km, 51.6° (Epoch: 07 December)

Date Brightness Start Highest point End Pass type
(mag) Time Alt. Az. Time Alt. Az. Time Alt. Az.
11 Dec -1.1 06:21:07 10° S 06:23:52 24° SE 06:26:37 10° ENE visible
12 Dec -0.5 05:34:27 10° SSE 05:36:06 13° SE 05:37:45 10° E visible
13 Dec -3.7 06:21:13 10° SW 06:24:34 84° SE 06:27:57 10° NE visible
14 Dec -2.6 05:35:36 31° S 05:36:39 42° SE 05:39:51 10° ENE visible
15 Dec -0.5 04:50:51 13° E 04:50:51 13° E 04:51:28 10° ENE visible
15 Dec -2.9 06:23:51 21° W 06:25:24 31° NW 06:28:28 10° NNE visible
16 Dec -2.4 05:38:39 30° NNE 05:38:39 30° NNE 05:40:38 10° NE visible
